Time,TemperatureF,DewpointF,PressureIn,WindDirection,WindDirectionDegrees,WindSpeedMPH,WindSpeedGustMPH,Humidity,HourlyPrecipIn,Conditions,Clouds,dailyrainin,SolarRadiationWatts/m^2,SoftwareType,DateUTC
2013-09-20 00:22:00,43.0,34.0,-100.00,North,357,4.0,9.0,71,0.00,,,0.00,0.000000,,2013-09-20 06:22:00,
2013-09-20 00:33:00,43.0,34.0,-100.00,North,357,4.0,9.0,71,0.00,,,0.00,0.000000,,2013-09-20 06:33:00,
2013-09-20 00:42:00,43.0,34.0,-100.00,North,357,4.0,9.0,71,0.00,,,0.00,0.000000,,2013-09-20 06:42:00,
2013-09-20 00:52:00,43.0,34.0,-100.00,North,357,4.0,9.0,71,0.00,,,0.00,0.000000,,2013-09-20 06:52:00,
2013-09-20 01:23:00,40.0,34.0,-100.00,North,353,2.0,5.0,80,0.00,,,0.00,0.000000,,2013-09-20 07:23:00,
2013-09-20 01:32:00,40.0,34.0,-100.00,North,353,2.0,5.0,80,0.00,,,0.00,0.000000,,2013-09-20 07:32:00,
2013-09-20 01:42:00,40.0,34.0,-100.00,North,353,2.0,5.0,80,0.00,,,0.00,0.000000,,2013-09-20 07:42:00,
2013-09-20 01:53:00,40.0,34.0,-100.00,North,353,2.0,5.0,80,0.00,,,0.00,0.000000,,2013-09-20 07:53:00,
2013-09-20 02:22:00,35.0,32.0,-100.00,SSW,206,0.0,4.0,90,0.00,,,0.00,0.000000,,2013-09-20 08:22:00,
2013-09-20 02:32:00,35.0,32.0,-100.00,SSW,206,0.0,4.0,90,0.00,,,0.00,0.000000,,2013-09-20 08:32:00,
2013-09-20 02:42:00,35.0,32.0,-100.00,SSW,206,0.0,4.0,90,0.00,,,0.00,0.000000,,2013-09-20 08:42:00,
2013-09-20 02:52:00,35.0,32.0,-100.00,SSW,206,0.0,4.0,90,0.00,,,0.00,0.000000,,2013-09-20 08:52:00,
2013-09-20 08:21:00,34.0,33.0,-100.00,NW,307,0.0,4.0,97,-99.99,,,0.00,45.000000,,2013-09-20 14:21:00,
2013-09-20 08:32:00,34.0,33.0,-100.00,NW,307,0.0,4.0,97,-99.99,,,0.00,45.000000,,2013-09-20 14:32:00,
2013-09-20 08:42:00,34.0,33.0,-100.00,NW,307,0.0,4.0,97,-99.99,,,0.00,45.000000,,2013-09-20 14:42:00,
2013-09-20 08:52:00,34.0,33.0,-100.00,NW,307,0.0,4.0,97,-99.99,,,0.00,45.000000,,2013-09-20 14:52:00,
2013-09-20 09:22:00,52.0,39.0,-100.00,NNE,24,1.0,3.0,62,-99.99,,,0.00,314.000000,,2013-09-20 15:22:00,
2013-09-20 09:33:00,52.0,39.0,-100.00,NNE,24,1.0,3.0,62,-99.99,,,0.00,314.000000,,2013-09-20 15:33:00,
2013-09-20 09:44:00,52.0,39.0,-100.00,NNE,24,1.0,3.0,62,-99.99,,,0.00,314.000000,,2013-09-20 15:44:00,
2013-09-20 09:54:00,52.0,39.0,-100.00,NNE,24,1.0,3.0,62,-99.99,,,0.00,314.000000,,2013-09-20 15:54:00,
2013-09-20 10:23:00,60.0,39.0,-100.00,East,89,2.0,6.0,45,0.00,,,0.00,494.000000,,2013-09-20 16:23:00,
2013-09-20 10:42:00,60.0,39.0,-100.00,East,89,2.0,6.0,45,0.00,,,0.00,494.000000,,2013-09-20 16:42:00,
2013-09-20 10:53:00,60.0,39.0,-100.00,East,89,2.0,6.0,45,0.00,,,0.00,494.000000,,2013-09-20 16:53:00,
2013-09-20 11:24:00,62.0,35.0,-100.00,North,7,6.0,13.0,36,0.00,,,0.00,644.000000,,2013-09-20 17:24:00,
2013-09-20 11:34:00,62.0,35.0,-100.00,North,7,6.0,13.0,36,0.00,,,0.00,644.000000,,2013-09-20 17:34:00,
2013-09-20 11:42:00,62.0,35.0,-100.00,North,7,6.0,13.0,36,0.00,,,0.00,644.000000,,2013-09-20 17:42:00,
2013-09-20 11:53:00,62.0,35.0,-100.00,North,7,6.0,13.0,36,0.00,,,0.00,644.000000,,2013-09-20 17:53:00,
2013-09-20 12:22:00,63.0,39.0,-100.00,SSE,154,4.0,14.0,41,0.00,,,-99.99,745.000000,,2013-09-20 18:22:00,
2013-09-20 12:32:00,63.0,39.0,-100.00,SSE,154,4.0,14.0,41,0.00,,,-99.99,745.000000,,2013-09-20 18:32:00,
2013-09-20 12:42:00,63.0,39.0,-100.00,SSE,154,4.0,14.0,41,0.00,,,-99.99,745.000000,,2013-09-20 18:42:00,
2013-09-20 12:52:00,63.0,39.0,-100.00,SSE,154,4.0,14.0,41,0.00,,,-99.99,745.000000,,2013-09-20 18:52:00,
2013-09-20 13:22:00,66.0,40.0,-100.00,East,84,3.0,11.0,39,0.00,,,0.00,790.000000,,2013-09-20 19:22:00,
2013-09-20 13:32:00,66.0,40.0,-100.00,East,84,3.0,11.0,39,0.00,,,0.00,790.000000,,2013-09-20 19:32:00,
2013-09-20 13:42:00,66.0,40.0,-100.00,East,84,3.0,11.0,39,0.00,,,0.00,790.000000,,2013-09-20 19:42:00,
2013-09-20 13:52:00,66.0,40.0,-100.00,East,84,3.0,11.0,39,0.00,,,0.00,790.000000,,2013-09-20 19:52:00,
2013-09-20 14:22:00,67.0,40.0,-100.00,SE,145,6.0,13.0,37,0.00,,,0.00,774.000000,,2013-09-20 20:22:00,
2013-09-20 14:32:00,67.0,40.0,-100.00,SE,145,6.0,13.0,37,0.00,,,0.00,774.000000,,2013-09-20 20:32:00,
2013-09-20 14:42:00,67.0,40.0,-100.00,SE,145,6.0,13.0,37,0.00,,,0.00,774.000000,,2013-09-20 20:42:00,
2013-09-20 14:52:00,67.0,40.0,-100.00,SE,145,6.0,13.0,37,0.00,,,0.00,774.000000,,2013-09-20 20:52:00,
2013-09-20 15:21:00,67.0,39.0,-100.00,SE,146,7.0,13.0,36,0.00,,,0.00,703.000000,,2013-09-20 21:21:00,
2013-09-20 15:34:00,67.0,39.0,-100.00,SE,146,7.0,13.0,36,0.00,,,0.00,703.000000,,2013-09-20 21:34:00,
2013-09-20 15:44:00,67.0,39.0,-100.00,SE,146,7.0,13.0,36,0.00,,,0.00,703.000000,,2013-09-20 21:44:00,
2013-09-20 15:54:00,67.0,39.0,-100.00,SE,146,7.0,13.0,36,0.00,,,0.00,703.000000,,2013-09-20 21:54:00,
2013-09-20 16:23:00,67.0,38.0,-100.00,SSE,150,7.0,14.0,34,0.00,,,0.00,436.000000,,2013-09-20 22:23:00,
2013-09-20 16:33:00,67.0,38.0,-100.00,SSE,150,7.0,14.0,34,0.00,,,0.00,436.000000,,2013-09-20 22:33:00,
2013-09-20 16:44:00,67.0,38.0,-100.00,SSE,150,7.0,14.0,34,0.00,,,0.00,436.000000,,2013-09-20 22:44:00,
2013-09-20 16:53:00,67.0,38.0,-100.00,SSE,150,7.0,14.0,34,0.00,,,0.00,436.000000,,2013-09-20 22:53:00,
2013-09-20 17:22:00,67.0,38.0,-100.00,SE,128,5.0,14.0,34,0.00,,,0.00,27.000000,,2013-09-20 23:22:00,
2013-09-20 17:34:00,67.0,38.0,-100.00,SE,128,5.0,14.0,34,0.00,,,0.00,27.000000,,2013-09-20 23:34:00,
2013-09-20 17:42:00,67.0,38.0,-100.00,SE,128,5.0,14.0,34,0.00,,,0.00,27.000000,,2013-09-20 23:42:00,
2013-09-20 17:53:00,67.0,38.0,-100.00,SE,128,5.0,14.0,34,0.00,,,0.00,27.000000,,2013-09-20 23:53:00,
2013-09-20 18:21:00,62.0,36.0,-100.00,SSE,149,5.0,14.0,38,0.00,,,0.00,145.000000,,2013-09-21 00:21:00,
2013-09-20 18:33:00,62.0,36.0,-100.00,SSE,149,5.0,14.0,38,0.00,,,0.00,145.000000,,2013-09-21 00:33:00,
2013-09-20 18:42:00,62.0,36.0,-100.00,SSE,149,5.0,14.0,38,0.00,,,0.00,145.000000,,2013-09-21 00:42:00,
2013-09-20 18:52:00,62.0,36.0,-100.00,SSE,149,5.0,14.0,38,0.00,,,0.00,145.000000,,2013-09-21 00:52:00,
2013-09-20 19:22:00,55.0,38.0,-100.00,West,278,0.0,10.0,53,0.00,,,0.00,12.000000,,2013-09-21 01:22:00,
2013-09-20 19:32:00,55.0,38.0,-100.00,West,278,0.0,10.0,53,0.00,,,0.00,12.000000,,2013-09-21 01:32:00,
2013-09-20 19:42:00,55.0,38.0,-100.00,West,278,0.0,10.0,53,0.00,,,0.00,12.000000,,2013-09-21 01:42:00,
2013-09-20 19:52:00,55.0,38.0,-100.00,West,278,0.0,10.0,53,0.00,,,0.00,12.000000,,2013-09-21 01:52:00,
2013-09-20 20:52:00,47.0,37.0,-100.00,NNW,331,0.0,3.0,67,0.00,,,0.00,1.000000,,2013-09-21 02:52:00,